Home > Weather > Kagoshima > Past weeks

Flag for Japan Past Weather in Kagoshima, Japan — Yesterday and Last 2 Weeks

Now
91 °F

Scattered clouds.


Feels Like: 101 °F
Forecast: 75 / 91 °F
Wind: 9 mph from South

Location: Kagoshima

Current Time: Jul 31, 2016 at 4:26:56 PM

Latest Report: Jul 31, 2016 at 3:00 PM


Visibility: 25 mi

Pressure: 29.83 "Hg

Humidity: 57%

Dew Point: 74 °F

Location of KagoshimaLocation

Past Weather in Kagoshima — Graph

°F

Kagoshima Temperature Yesterday

Maximum temperature yesterday: 92 °F (at 12:00 PM)
Minimum temperature yesterday: 81 °F (at 5:00 AM)
Average temperature yesterday: 86 °F

High & Low Weather Summary for the Past Weeks

 TemperatureHumidityPressure
High94 °F (Jul 22, 1:00 PM)98% (Jul 20, 5:00 PM)29.91 "Hg (Jul 20, 5:00 PM)
Low76 °F (Jul 21, 6:00 AM)47% (Jul 27, 4:00 PM)29.69 "Hg (Jul 16, 5:00 PM)
Average85 °F75%29.83 "Hg
* Reported Jul 16 3:00 PM — Jul 31 3:00 PM, Kagoshima, Weather by CustomWeather, © 2016

Note: Actual official high and low records may vary slightly from our data, if they occured in-between our weather recording intervals... More about our weather records

Advertising

Kagoshima Weather History for the Previous 24 Hours

Scroll right to see more
 ConditionsComfort  
Time TempWeatherWind HumidityBarometerVisibility
3:00 PM
Sun, Jul 31
91 °FScattered clouds.9 mph57%29.83 "Hg25 mi
2:00 PM91 °FHot.10 mph57%29.83 "HgN/A
1:00 PM90 °FHot.7 mph58%29.85 "HgN/A
12:00 PM89 °FPassing clouds.7 mph62%29.85 "Hg25 mi
11:00 AM88 °FHot.6 mph60%29.87 "HgN/A
10:00 AM89 °FHot.6 mph60%29.87 "HgN/A
9:00 AM85 °FScattered clouds.7 mph67%29.88 "Hg31 mi
8:00 AM84 °FWarm.6 mph70%29.88 "HgN/A
7:00 AM81 °FWarm.8 mph77%29.88 "HgN/A
6:00 AM81 °FPassing clouds.9 mph79%29.88 "Hg25 mi
5:00 AM81 °FWarm.6 mph77%29.88 "HgN/A
3:00 AM82 °FPassing clouds.7 mph78%29.87 "Hg19 mi
2:00 AM81 °FWarm.12 mph81%29.87 "HgN/A
1:00 AM81 °FWarm.8 mph80%29.87 "HgN/A
12:00 AM82 °FWarm.9 mph74%29.87 "HgN/A
11:00 PM
Sat, Jul 30
83 °FWarm.7 mph71%29.87 "HgN/A
10:00 PM83 °FWarm.7 mph67%29.88 "HgN/A
9:00 PM85 °FPassing clouds.10 mph64%29.88 "Hg19 mi
8:00 PM86 °FWarm.10 mph65%29.86 "HgN/A
7:00 PM87 °FWarm.8 mph66%29.85 "HgN/A
6:00 PM88 °FOvercast.10 mph66%29.83 "Hg31 mi
5:00 PM89 °FHot.10 mph63%29.83 "HgN/A
4:00 PM91 °FHot.10 mph60%29.84 "HgN/A
Weather by CustomWeather, © 2016

See weather overviewHow to use our weather pages